Tracking 29606 objects as of 19-Sep-2024
HD Live streaming from Space Station
objects crossing your sky now

STARLINK-31911

Track STARLINK-31911 now!
10-day predictions
STARLINK-31911 is classified as:


NORAD ID: 60587
Int'l Code: 2024-150E
Perigee: 453.5 km
Apogee: 455.3 km
Inclination: 53.2 °
Period: 93.5 minutes
Semi major axis: 6825 km
RCS: Unknown
Launch date: August 20, 2024
Source: United States (US)
Launch site: AIR FORCE EASTERN TEST RANGE (AFETR)
Your satellite tracking list
Your tracking list is empty




NASA's NSSDC Master Catalog

Two Line Element Set (TLE):
1 60587U 24150E   24262.83334491  .00025503  00000-0  64538-3 0  9993
2 60587  53.1589 283.0979 0001324  85.6488 216.7994 15.39621408  5693
Source of the keplerian elements: AFSPC